Prescott, AZ

3:13 PM MST on December 08, 2019 (GMT -0700)
Love

Weather History for KPRC - October, 2019

Change the Weather History Date:

Thursday, October 31, 2019

  Actual Average Record
Temperature  
Mean Temperature 40 °F 52 °F  
Max Temperature 63 °F 67 °F 80 °F (2008)
Min Temperature 18 °F 36 °F 22 °F (1991)
Degree Days  
Heating Degree Days 24    
Month to date heating degree days 292  
Since 1 July heating degree days 319  
Cooling Degree Days 0    
Month to date cooling degree days 0  
Year to date cooling degree days 1130  
Moisture  
Dew Point -12 °F    
Average Humidity 16    
Maximum Humidity 33    
Minimum Humidity 3    
Precipitation  
Precipitation 0.00 in 0.03 in 0.98 in (1987)
Month to date precipitation 0.00 0.92  
Year to date precipitation 10.29 12.09  
Sea Level Pressure  
Sea Level Pressure 30.26 in    
Wind  
Wind Speed 4 mph ()    
Max Wind Speed 12 mph    
Max Gust Speed 13 mph    
Visibility 10.0 miles    
Events      
T = Trace of Precipitation, MM = Missing Value Source: Averaged Metar Reports

Daily Weather History Graph

Daily Weather History Graph

Search for Another Location

Airport or City:

Astronomy

Oct. 31, 2019 Rise Set
Actual Time 6:49 AM MST 5:36 PM MST
Civil Twilight 6:23 AM MST 6:02 PM MST
Nautical Twilight 5:53 AM MST 6:32 PM MST
Astronomical Twilight 5:23 AM MST 7:02 PM MST
Moon 10:34 AM MST (10/31) 8:43 PM MST (10/31)
Length of Visible Light 11h 39m
Length of Day
10h 47m
Waxing Crescent, 16% of the Moon is Illuminated
Oct 31
Waxing Crescent
Nov 4
First Quarter
Nov 12
Full
Nov 19
Last Quarter
Nov 26
New

Hourly Weather History & Observations

Time (MST) Temp. Windchill Dew Point Humidity Pressure Visibility Wind Dir Wind Speed Gust Speed Precip Events Conditions
12:53 AM 23.0 °F 17.0 °F -7.1 °F 27% 30.33 in 10.0 mi SW 4.6 mph - N/A   Clear
1:53 AM 21.9 °F 17.2 °F -6.0 °F 29% 30.32 in 10.0 mi West 3.5 mph - N/A   Clear
2:53 AM 21.0 °F 16.2 °F -8.0 °F 28% 30.32 in 10.0 mi SW 3.5 mph - N/A   Clear
3:53 AM 19.9 °F 13.4 °F -7.1 °F 30% 30.32 in 10.0 mi South 4.6 mph - N/A   Clear
4:53 AM 19.9 °F 13.4 °F -8.0 °F 29% 30.33 in 10.0 mi SSW 4.6 mph - N/A   Clear
5:53 AM 19.0 °F 13.9 °F -8.0 °F 30% 30.36 in 10.0 mi SSW 3.5 mph - N/A   Clear
6:53 AM 18.0 °F 9.8 °F -8.0 °F 31% 30.36 in 10.0 mi SSW 5.8 mph - N/A   Clear
7:53 AM 24.1 °F 19.7 °F -6.0 °F 27% 30.39 in 10.0 mi South 3.5 mph - N/A   Clear
8:53 AM 33.1 °F 28.7 °F -11.0 °F 15% 30.38 in 10.0 mi Variable 4.6 mph - N/A   Clear
9:53 AM 37.9 °F 32.7 °F -11.9 °F 12% 30.35 in 10.0 mi North 6.9 mph - N/A   Clear
10:53 AM 44.1 °F 40.8 °F -14.1 °F 8% 30.31 in 10.0 mi North 5.8 mph - N/A   Clear
11:53 AM 52.0 °F - -17.0 °F 5% 30.26 in 10.0 mi Calm Calm - N/A   Clear
12:53 PM 55.9 °F - -20.9 °F 4% 30.21 in 10.0 mi Variable 5.8 mph - N/A   Clear
1:53 PM 60.1 °F - -20.9 °F 4% 30.17 in 10.0 mi Variable 4.6 mph - N/A   Clear
2:53 PM 62.1 °F - -20.9 °F 4% 30.15 in 10.0 mi Calm Calm - N/A   Clear
3:53 PM 63.0 °F - -20.9 °F 4% 30.15 in 10.0 mi NNE 3.5 mph - N/A   Clear
4:53 PM 61.0 °F - -18.9 °F 4% 30.15 in 10.0 mi NNE 5.8 mph - N/A   Clear
5:53 PM 53.1 °F - -17.0 °F 5% 30.18 in 10.0 mi Calm Calm - N/A   Clear
6:53 PM 44.1 °F 42.5 °F -8.0 °F 11% 30.23 in 10.0 mi SSW 3.5 mph - N/A   Clear
7:53 PM 39.9 °F 35.1 °F -9.0 °F 12% 30.23 in 10.0 mi South 6.9 mph - N/A   Clear
8:53 PM 39.9 °F 33.4 °F -9.9 °F 12% 30.21 in 10.0 mi South 10.4 mph - N/A   Clear
9:53 PM 35.1 °F 31.0 °F -6.0 °F 17% 30.21 in 10.0 mi South 4.6 mph - N/A   Clear
10:53 PM 33.1 °F 28.7 °F -6.0 °F 19% 30.20 in 10.0 mi South 4.6 mph - N/A   Unknown
11:53 PM 32.0 °F 27.5 °F -8.0 °F 18% 30.19 in 10.0 mi South 4.6 mph - N/A   Unknown